Location: Newark
(40.7066°N, 111.8219°W)
Time: 20:46:09
(UTC+00:00)

deb Explorer IX - Pass Details

Date: 19 November 2019
Orbit: 546 x 1104 km, 38.8° (Epoch: 14 December)

Event Time Altitude Azimuth Distance (km) Brightness Sun altitude
Exits shadow 12:33:44 35° 245° (WSW) 1,127 ? -19.8°
Maximum altitude 12:35:13 46° 200° (SSW) 918 ? -19.5°
Drops below altitude 10° 12:39:37 10° 127° (SE) 1,990 ? -18.7°
Sets 12:41:51 0° 121° (ESE) 2,832 ? -18.2°
